{"data":{"norad_id":64043,"epoch":"2026-05-25T02:02:48.649920Z","epoch_age_seconds":67084,"freshness":"FRESH","line1":"1 64043U 25102X   26145.08528530  .00003787  00000+0  32507-3 0  9990","line2":"2 64043  70.0006 281.9045 0003076 273.3496  86.7311 14.98327047 57284","mean_motion":14.98327047,"eccentricity":0.0003076,"inclination_deg":70.0006,"raan_deg":281.9045,"arg_perigee_deg":273.3496,"mean_anomaly_deg":86.7311,"bstar":0.00032507,"rev_number":5728,"period_min":96.107188539593,"perigee_km":569.92714072609,"apogee_km":574.20290501055,"semimajor_km":6950.2020228683,"source":"CELESTRAK","updated_at":"2026-05-25T13:38:20.255087Z"}}